Weather History for Alma, MI

Change the Weather History Date:

Tuesday, October 25, 2011

  Actual Average Record
Temperature  
Mean Temperature 44 °F -  
Max Temperature 50 °F 58 °F 81 °F (1963)
Min Temperature 37 °F 37 °F 20 °F (1960)
Degree Days  
Heating Degree Days 22    
Moisture  
Dew Point 43 °F    
Average Humidity 97    
Maximum Humidity 100    
Minimum Humidity 87    
Precipitation  
Precipitation 0.00 in - - ()
Sea Level Pressure  
Sea Level Pressure 30.05 in    
Wind  
Wind Speed 5 mph (East)    
Max Wind Speed 16 mph    
Max Gust Speed 21 mph    
Visibility 8 miles    
Events Rain    
Averages and records for this station are not official NWS values.
T = Trace of Precipitation, MM = Missing Value Source: NWS Daily Summary

Daily Weather History Graph

Daily Weather History Graph

Search for Another Location

Airport:

Trip Planner

Search our weather history database for the weather conditions in past years. The results will help you decide how hot, cold, wet, or windy it might be!

Date:

Astronomy

Oct. 25, 2011 Rise Set
Actual Time 8:04 AM EDT 6:40 PM EDT
Civil Twilight 7:35 AM EDT 7:09 PM EDT
Nautical Twilight 7:02 AM EDT 7:42 PM EDT
Astronomical Twilight 6:28 AM EDT 8:15 PM EDT
Moon 6:34 AM EDT (10/25) 5:41 PM EDT (10/25)
Length of Visible Light 11h 34m
Length of Day
10h 35m
Waning Crescent, 2% of the Moon is Illuminated
Oct 25
Waning Crescent
Oct 26
New
Nov 2
First Quarter
Nov 10
Full
Nov 18
Last Quarter

Hourly Weather History & Observations

Time (EDT) Temp. Windchill Dew Point Humidity Pressure Visibility Wind Dir Wind Speed Gust Speed Precip Events Conditions
12:11 AM 37.4 °F 34.9 °F 37.4 °F 100% 30.09 in 10.0 mi WSW 3.5 mph - N/A   Clear
12:31 AM 37.4 °F 34.9 °F 37.4 °F 100% 30.09 in 10.0 mi WSW 3.5 mph - N/A   Clear
12:51 AM 39.2 °F 37.0 °F 39.2 °F 100% 30.09 in 10.0 mi WSW 3.5 mph - N/A   Clear
1:11 AM 39.2 °F 35.9 °F 39.2 °F 100% 30.09 in 10.0 mi WSW 4.6 mph - N/A   Clear
1:31 AM 41.0 °F 39.0 °F 41.0 °F 100% 30.10 in 10.0 mi WSW 3.5 mph - N/A   Clear
1:51 AM 41.0 °F 37.1 °F 39.2 °F 93% 30.10 in 10.0 mi WSW 5.8 mph - N/A   Clear
2:12 AM 41.0 °F 38.0 °F 39.2 °F 93% 30.11 in 10.0 mi WSW 4.6 mph - N/A   Clear
2:32 AM 41.0 °F - 39.2 °F 93% 30.11 in 10.0 mi Calm Calm - N/A   Clear
3:12 AM 41.0 °F - 41.0 °F 100% 30.12 in 10.0 mi Calm Calm - N/A   Overcast
3:32 AM 42.8 °F - 42.8 °F 100% 30.12 in 10.0 mi Calm Calm - N/A   Overcast
3:47 AM 42.8 °F - 41.0 °F 93% 30.12 in 10.0 mi Calm Calm - N/A   Overcast
4:10 AM 42.8 °F - 42.8 °F 100% 30.12 in 10.0 mi Calm Calm - N/A   Overcast
4:30 AM 42.8 °F 41.1 °F 42.8 °F 100% 30.11 in 10.0 mi SSW 3.5 mph - N/A   Overcast
4:50 AM 42.8 °F 41.1 °F 41.0 °F 93% 30.11 in 10.0 mi SSW 3.5 mph - N/A   Overcast
5:10 AM 42.8 °F - 41.0 °F 93% 30.11 in 10.0 mi Calm Calm - N/A   Overcast
5:30 AM 41.0 °F - 41.0 °F 100% 30.11 in 10.0 mi Calm Calm - N/A   Scattered Clouds
5:45 AM 39.2 °F - 39.2 °F 100% 30.12 in 7.0 mi Calm Calm - N/A   Mostly Cloudy
6:08 AM 39.2 °F - 39.2 °F 100% 30.11 in 5.0 mi Calm Calm - N/A   Overcast
6:28 AM 39.2 °F - 39.2 °F 100% 30.11 in 7.0 mi Calm Calm - N/A   Overcast
6:48 AM 39.2 °F - 39.2 °F 100% 30.11 in 7.0 mi Calm Calm - N/A   Overcast
7:09 AM 41.0 °F - 41.0 °F 100% 30.11 in 7.0 mi Calm Calm - N/A   Overcast
7:30 AM 42.8 °F - 42.8 °F 100% 30.11 in 7.0 mi Calm Calm - N/A Rain Light Rain
7:50 AM 42.8 °F - 42.8 °F 100% 30.12 in 7.0 mi Calm Calm - N/A Rain Light Rain
8:10 AM 42.8 °F 41.1 °F 42.8 °F 100% 30.12 in 4.0 mi East 3.5 mph - N/A Rain Rain
8:30 AM 42.8 °F 41.1 °F 42.8 °F 100% 30.12 in 4.0 mi NE 3.5 mph - N/A Rain Light Rain
8:51 AM 42.8 °F - 42.8 °F 100% 30.13 in 4.0 mi Calm Calm - N/A Rain Light Rain
9:11 AM 42.8 °F 41.1 °F 42.8 °F 100% 30.12 in 4.0 mi East 3.5 mph - N/A Rain Light Rain
9:26 AM 42.8 °F - 42.8 °F 100% 30.12 in 4.0 mi Calm Calm - N/A   Overcast
9:49 AM 42.8 °F 40.1 °F 42.8 °F 100% 30.12 in 4.0 mi NE 4.6 mph - N/A Rain Light Rain
10:10 AM 42.8 °F 39.3 °F 42.8 °F 100% 30.11 in 4.0 mi NE 5.8 mph - N/A Rain Light Rain
10:20 AM 44.6 °F 42.2 °F 44.6 °F 100% 30.13 in 5.0 mi NE 4.6 mph - N/A Rain Light Rain
10:50 AM 44.6 °F 41.4 °F 44.6 °F 100% 30.13 in 5.0 mi East 5.8 mph - N/A Rain Light Rain
11:10 AM 44.6 °F 40.7 °F 44.6 °F 100% 30.11 in 7.0 mi East 6.9 mph - N/A   Overcast
11:30 AM 44.6 °F 40.2 °F 44.6 °F 100% 30.10 in 7.0 mi East 8.1 mph - N/A   Overcast
11:50 AM 44.6 °F 40.7 °F 44.6 °F 100% 30.10 in 7.0 mi East 6.9 mph - N/A   Overcast
12:28 PM 44.6 °F 39.7 °F 44.6 °F 100% 30.05 in 10.0 mi ESE 9.2 mph - N/A   Overcast
12:48 PM 46.4 °F 42.4 °F 44.6 °F 93% 30.04 in 10.0 mi ESE 8.1 mph - N/A   Overcast
1:08 PM 46.4 °F 41.1 °F 44.6 °F 93% 30.01 in 10.0 mi East 11.5 mph 16.1 mph N/A   Overcast
1:28 PM 46.4 °F 41.9 °F 44.6 °F 93% 29.98 in 10.0 mi East 9.2 mph - N/A   Overcast
1:48 PM 46.4 °F 41.9 °F 44.6 °F 93% 29.97 in 10.0 mi East 9.2 mph - N/A   Overcast
2:08 PM 46.4 °F 41.5 °F 44.6 °F 93% 29.97 in 10.0 mi ENE 10.4 mph - N/A   Overcast
2:29 PM 50.0 °F - 46.4 °F 87% 29.96 in 10.0 mi ENE 11.5 mph - N/A   Overcast
3:09 PM 46.4 °F 40.1 °F 44.6 °F 93% 29.94 in 10.0 mi ENE 15.0 mph - N/A   Overcast
3:29 PM 46.4 °F 40.7 °F 44.6 °F 93% 29.93 in 10.0 mi ENE 12.7 mph 20.7 mph N/A   Mostly Cloudy
3:49 PM 48.2 °F - 44.6 °F 87% 29.93 in 10.0 mi ENE 13.8 mph - N/A   Overcast
4:29 PM 46.4 °F 40.7 °F 44.6 °F 93% 29.92 in 10.0 mi ENE 12.7 mph - N/A   Overcast
4:49 PM 46.4 °F 40.7 °F 44.6 °F 93% 29.91 in 10.0 mi ENE 12.7 mph 18.4 mph N/A   Overcast
5:10 PM 46.4 °F 40.4 °F 44.6 °F 93% 29.91 in 10.0 mi NE 13.8 mph 17.3 mph N/A   Overcast
5:30 PM 44.6 °F 38.4 °F 44.6 °F 100% 29.89 in 10.0 mi ENE 12.7 mph 18.4 mph N/A   Overcast
5:50 PM 44.6 °F 37.8 °F 42.8 °F 93% 29.90 in 10.0 mi ENE 15.0 mph - N/A   Overcast
6:10 PM 44.6 °F 37.4 °F 42.8 °F 93% 29.91 in 10.0 mi NE 16.1 mph 19.6 mph N/A   Overcast
6:30 PM 44.6 °F 38.8 °F 42.8 °F 93% 29.92 in 10.0 mi NE 11.5 mph 19.6 mph N/A   Overcast
7:30 PM 44.6 °F 39.7 °F 44.6 °F 100% 29.89 in 7.0 mi East 9.2 mph - N/A Rain Rain
7:50 PM 44.6 °F 38.4 °F 44.6 °F 100% 29.87 in 7.0 mi East 12.7 mph 18.4 mph N/A Rain Light Rain
8:11 PM 44.6 °F 38.8 °F 44.6 °F 100% 29.86 in 10.0 mi East 11.5 mph - N/A   Unknown
8:31 PM 44.6 °F 39.2 °F 44.6 °F 100% 29.86 in 10.0 mi ENE 10.4 mph - N/A   Overcast
9:11 PM 44.6 °F 40.2 °F 44.6 °F 100% 29.85 in 7.0 mi NE 8.1 mph - N/A Rain Light Rain
9:31 PM 44.6 °F 39.2 °F 44.6 °F 100% 29.84 in 7.0 mi NE 10.4 mph - N/A   Overcast
9:51 PM 44.6 °F 40.2 °F 44.6 °F 100% 29.83 in 7.0 mi NE 8.1 mph - N/A   Overcast
10:11 PM 44.6 °F 39.7 °F 44.6 °F 100% 29.83 in 7.0 mi NE 9.2 mph - N/A   Overcast
10:31 PM 44.6 °F 39.2 °F 44.6 °F 100% 29.83 in 7.0 mi NNE 10.4 mph - N/A   Overcast
10:51 PM 44.6 °F 39.7 °F 44.6 °F 100% 29.83 in 7.0 mi NNE 9.2 mph - N/A   Overcast
11:12 PM 44.6 °F 40.2 °F 44.6 °F 100% 29.82 in 7.0 mi NE 8.1 mph - N/A   Overcast
11:32 PM 44.6 °F 39.7 °F 44.6 °F 100% 29.81 in 7.0 mi NNE 9.2 mph - N/A   Overcast
11:52 PM 44.6 °F 39.7 °F 44.6 °F 100% 29.81 in 7.0 mi NNE 9.2 mph - N/A   Overcast